This demonstration page uses our WeatherBlox Daily Observations layout. Learn more.

41.55636, -103.73856

Hourly Observations for May 20, 2018

Temp ( °F °C ) Dew Point ( °F °C ) Humidity (%) Winds ( mph kmh ) Pressure ( in mb ) Visibility ( mi km ) Precip ( " mm )
12:58 am 00:58 Cloudy 39 4.1 37 2.7 91 91 Calm 30.34 1028 10 16.0934 N/A
1:58 am 01:58 Cloudy 40 4.2 37 2.9 91 91 Calm 30.29 1026 10 16.0934 N/A
2:58 am 02:58 Cloudy 40 4.2 37 2.9 91 91 NW 3 6 30.27 1025 10 16.0934 N/A
3:58 am 03:58 Cloudy 40 4.2 37 3 92 92 N 3 6 30.26 1025 10 16.0934 N/A
4:58 am 04:58 Clear 35 1.9 35 1.4 97 97 N 8 13 30.27 1025 10 16.0934 N/A
5:58 am 05:58 Mostly Cloudy 37 2.6 36 2 96 96 Calm 30.31 1026 N/A 0 0
6:58 am 06:58 Cloudy 39 4 38 3.2 95 95 Calm 30.33 1027 10 16.0934 N/A
7:58 am 07:58 Cloudy 41 5 36 2.2 82 82 Calm 30.32 1027 10 16.0934 N/A
8:58 am 08:58 Cloudy 43 6.1 37 2.5 78 78 SSW 5 7 30.3 1026 10 16.0934 N/A
9:58 am 09:58 Mostly Sunny 46 7.8 38 3.2 73 73 Calm 30.28 1025 10 16.0934 N/A
10:58 am 10:58 Mostly Cloudy 49 9.5 39 4.1 69 69 SSE 5 7 30.25 1025 10 16.0934 N/A
11:58 am 11:58 Mostly Cloudy 51 10.4 41 5.2 70 70 SE 5 7 30.23 1024 10 16.0934 N/A
12:58 pm 12:58 Mostly Cloudy 52 11.2 40 4.6 64 64 SE 3 6 30.19 1022 10 16.0934 N/A
1:58 pm 13:58 Mostly Cloudy 55 12.8 42 5.8 63 63 SSE 7 11 30.15 1021 10 16.0934 N/A
2:58 pm 14:58 Mostly Cloudy 55 12.9 41 5.2 60 60 Calm 30.13 1020 10 16.0934 N/A
3:58 pm 15:58 Cloudy 56 13.6 43 6.1 61 61 SE 8 13 30.11 1020 10 16.0934 N/A
4:58 pm 16:58 Mostly Cloudy 56 13.6 43 6.2 61 61 SE 9 15 30.12 1020 10 16.0934 N/A
5:58 pm 17:58 Cloudy 55 12.8 43 6.3 65 65 SSE 12 19 30.14 1021 10 16.0934 N/A
6:58 pm 18:58 Mostly Cloudy 54 12.3 43 6 66 66 SSE 16 26 30.12 1020 10 16.0934 N/A
7:58 pm 19:58 Partly Cloudy 52 11 44 6.6 75 75 SSE 12 19 30.11 1020 10 16.0934 N/A
8:58 pm 20:58 Mostly Clear 48 8.7 44 6.5 86 86 SSE 9 15 30.1 1019 10 16.0934 N/A
9:58 pm 21:58 Clear 47 8.1 43 6.2 88 88 SSE 10 17 30.1 1019 10 16.0934 N/A
10:58 pm 22:58 Clear 45 7.3 42 5.8 90 90 SSE 10 17 30.09 1019 10 16.0934 N/A
11:58 pm 23:58 Clear 45 7.2 43 6 92 92 SSE 13 20 30.07 1018 10 16.0934 N/A

Powered by AerisWeather